Location: New Greens
(51.7702°N, 0.3379°W)
Time: 09:46:19
(UTC+00:00)

Envisat - Pass Details

Date: 24 January 2019
Orbit: 764 x 766 km, 98.2° (Epoch: 17 February)

Event Time Altitude Azimuth Distance (km) Brightness Sun altitude
Rises 18:54:02 0° 175° (S) 3,222 6.2 -21.1°
Reaches altitude 10° 18:56:22 10° 179° (S) 2,300 5.5 -21.5°
Maximum altitude 19:01:22 59° 259° (W) 890 3.6 -22.3°
Drops below altitude 10° 19:06:25 10° 339° (NNW) 2,316 5.7 -23.0°
Sets 19:08:46 0° 343° (NNW) 3,247 6.4 -23.4°
